Location: Paddlesworth
(51.1000°N, 1.1333°E)
Time: 04:08:14
(UTC+00:00)

NOSS 3-3 (A) - Pass Details

Date: 11 May 2021
Orbit: 810 x 1402 km, 63.4° (Epoch: 06 June)

Event Time Altitude Azimuth Distance (km) Brightness Sun altitude
Rises 21:20:49 0° 225° (SW) 3,416 6.8 -13.3°
Reaches altitude 10° 21:23:09 10° 226° (SW) 2,532 6.1 -13.5°
Maximum altitude 21:29:02 84° 315° (NW) 972 4.0 -14.0°
Drops below altitude 10° 21:35:51 10° 44° (NE) 2,915 6.6 -14.6°
Sets 21:38:43 0° 46° (NE) 3,967 7.3 -14.9°
